This demonstration page uses our WeatherBlox Daily Observations layout. Learn more.

Left ArrowRight Arrow

Hourly Observations for December 12, 2020

Temp ( °F °C ) Dew Point ( °F °C ) Humidity (%) Winds ( mph kmh ) Pressure ( in mb ) Visibility ( mi km ) Precip ( " mm )
12:15 am 00:15 Cloudy 50 10 50 10 100 100 SSE 6 9 29.86 1011 7 11.26538 N/A
12:35 am 00:35 Cloudy 50 10 50 10 100 100 SSE 8 13 29.85 1011 7 11.26538 N/A
12:55 am 00:55 Cloudy 50 10 50 10 100 100 SSE 9 15 29.84 1011 10 16.0934 N/A
1:15 am 01:15 Mostly Cloudy 50 10 50 10 100 100 SSE 10 17 29.81 1009 10 16.0934 N/A
1:35 am 01:35 Mostly Cloudy 50 10 50 10 100 100 SSE 13 20 29.81 1009 10 16.0934 N/A
1:55 am 01:55 Cloudy 50 10 50 10 100 100 SSE 9 15 29.8 1009 10 16.0934 N/A
2:15 am 02:15 Cloudy 52 11 52 11 100 100 SSE 9 15 29.79 1009 10 16.0934 N/A
2:35 am 02:35 Cloudy 52 11 52 11 100 100 SSE 10 17 29.79 1009 10 16.0934 N/A
2:55 am 02:55 Cloudy 52 11 52 11 100 100 S 10 17 29.79 1009 10 16.0934 N/A
3:15 am 03:15 Cloudy 52 11 52 11 100 100 SSE 10 17 29.78 1008 10 16.0934 N/A
3:35 am 03:35 Cloudy 52 11 52 11 100 100 SSE 10 17 29.78 1008 10 16.0934 N/A
3:55 am 03:55 Cloudy 52 11 52 11 100 100 SSE 12 19 29.77 1008 10 16.0934 N/A
4:15 am 04:15 Cloudy 52 11 52 11 100 100 SSE 12 19 29.75 1007 5 8.0467 N/A
4:35 am 04:35 Cloudy 52 11 52 11 100 100 SSE 15 24 29.73 1007 5 8.0467 N/A
4:55 am 04:55 Cloudy 52 11 52 11 100 100 SSE 15 24 29.73 1007 7 11.26538 N/A
5:15 am 05:15 Cloudy 52 11 52 11 100 100 SSE 14 22 29.72 1006 7 11.26538 N/A
5:35 am 05:35 Cloudy 50 10 50 10 100 100 SSE 14 22 29.7 1006 5 8.0467 N/A
5:55 am 05:55 Cloudy 50 10 50 10 100 100 SSE 15 24 29.7 1006 3 4.82802 N/A
6:15 am 06:15 Cloudy 50 10 50 10 100 100 SSE 15 24 29.7 1006 7 11.26538 N/A
6:35 am 06:35 Cloudy 52 11 52 11 100 100 SSE 16 26 29.69 1005 7 11.26538 N/A
6:55 am 06:55 Cloudy 52 11 52 11 100 100 S 15 24 29.69 1005 7 11.26538 N/A
7:15 am 07:15 Cloudy 52 11 52 11 100 100 S 16 26 29.68 1005 10 16.0934 N/A
7:35 am 07:35 Cloudy 52 11 52 11 100 100 S 16 26 29.68 1005 7 11.26538 N/A
7:55 am 07:55 Cloudy 52 11 52 11 100 100 SSW 14 22 29.69 1005 5 8.0467 N/A
8:15 am 08:15 Cloudy 52 11 52 11 100 100 SSW 17 28 29.7 1006 4 6.43736 N/A
8:35 am 08:35 Cloudy 52 11 52 11 100 100 SSW 12 19 29.71 1006 4 6.43736 N/A
8:55 am 08:55 Cloudy 52 11 52 11 100 100 SW 13 20 29.71 1006 10 16.0934 N/A
9:15 am 09:15 Cloudy 52 11 52 11 100 100 SW 14 22 29.72 1006 10 16.0934 N/A
9:35 am 09:35 Cloudy 52 11 52 11 100 100 SSW 13 20 29.71 1006 7 11.26538 N/A
9:55 am 09:55 Cloudy 52 11 52 11 100 100 WSW 18 30 29.73 1007 10 16.0934 N/A
10:15 am 10:15 Cloudy 50 10 50 10 100 100 WSW 16 26 29.73 1007 10 16.0934 N/A
10:35 am 10:35 Cloudy 52 11 52 11 100 100 SW 13 20 29.73 1007 10 16.0934 N/A
10:55 am 10:55 Cloudy 54 12 54 12 100 100 SW 18 30 29.72 1007 10 16.0934 N/A
11:15 am 11:15 Mostly Cloudy 54 12 54 12 100 100 SW 16 26 29.72 1007 10 16.0934 N/A
11:35 am 11:35 Mostly Cloudy 54 12 52 11 94 94 SW 25 41 29.73 1007 10 16.0934 N/A
11:55 am 11:55 Partly Cloudy 55 13 52 11 88 88 SW 18 30 29.72 1006 10 16.0934 N/A
12:15 pm 12:15 Mostly Cloudy 54 12 52 11 94 94 WSW 26 43 29.73 1007 10 16.0934 N/A
12:35 pm 12:35 Mostly Cloudy 52 11 50 10 94 94 SW 26 43 29.75 1007 10 16.0934 N/A
12:55 pm 12:55 Cloudy 50 10 48 9 94 94 SW 23 37 29.75 1007 10 16.0934 N/A
1:15 pm 13:15 Cloudy 48 9 48 9 100 100 WSW 24 39 29.76 1008 10 16.0934 N/A
1:35 pm 13:35 Cloudy 46 8 46 8 100 100 SW 25 41 29.77 1008 10 16.0934 N/A
1:55 pm 13:55 Cloudy 46 8 45 7 93 93 WSW 21 33 29.78 1008 10 16.0934 N/A
2:15 pm 14:15 Cloudy 46 8 45 7 93 93 WSW 18 30 29.78 1008 10 16.0934 N/A
2:35 pm 14:35 Cloudy 46 8 43 6 87 87 WSW 21 33 29.78 1008 10 16.0934 N/A
2:55 pm 14:55 Cloudy 45 7 43 6 93 93 WSW 22 35 29.79 1009 10 16.0934 N/A
3:15 pm 15:15 Cloudy 45 7 43 6 93 93 SW 17 28 29.8 1009 10 16.0934 N/A
3:35 pm 15:35 Cloudy 43 6 43 6 100 100 SW 15 24 29.81 1010 10 16.0934 N/A
3:55 pm 15:55 Cloudy 43 6 41 5 93 93 SW 16 26 29.82 1010 10 16.0934 N/A
4:15 pm 16:15 Cloudy 43 6 43 6 100 100 SW 14 22 29.83 1010 10 16.0934 N/A
4:35 pm 16:35 Cloudy 43 6 43 6 100 100 SW 15 24 29.84 1011 10 16.0934 N/A
4:55 pm 16:55 Cloudy 43 6 43 6 100 100 SW 14 22 29.84 1011 7 11.26538 N/A
5:15 pm 17:15 Cloudy 43 6 43 6 100 100 SW 17 28 29.85 1011 7 11.26538 N/A
5:35 pm 17:35 Cloudy 43 6 43 6 100 100 SW 15 24 29.86 1011 10 16.0934 N/A
5:55 pm 17:55 Cloudy 41 5 41 5 100 100 SW 14 22 29.88 1012 10 16.0934 N/A
6:15 pm 18:15 Cloudy 41 5 41 5 100 100 SW 14 22 29.89 1012 10 16.0934 N/A
6:35 pm 18:35 Cloudy 41 5 41 5 100 100 WSW 16 26 29.9 1012 10 16.0934 N/A
6:55 pm 18:55 Cloudy 41 5 41 5 100 100 WSW 20 31 29.91 1013 10 16.0934 N/A
7:15 pm 19:15 Cloudy 41 5 41 5 100 100 WSW 17 28 29.92 1013 10 16.0934 N/A
7:35 pm 19:35 Cloudy 41 5 41 5 100 100 WSW 16 26 29.92 1013 10 16.0934 N/A
7:55 pm 19:55 Cloudy 41 5 41 5 100 100 WSW 12 19 29.93 1013 10 16.0934 N/A
8:15 pm 20:15 Cloudy 41 5 41 5 100 100 WSW 15 24 29.94 1014 10 16.0934 N/A
8:35 pm 20:35 Cloudy 41 5 41 5 100 100 WSW 14 22 29.95 1014 10 16.0934 N/A
8:55 pm 20:55 Cloudy 41 5 41 5 100 100 WSW 13 20 29.95 1014 10 16.0934 N/A
9:15 pm 21:15 Cloudy 41 5 41 5 100 100 WSW 14 22 29.96 1014 5 8.0467 N/A
9:35 pm 21:35 Cloudy 39 4 39 4 100 100 W 7 11 29.97 1015 4 6.43736 N/A
9:55 pm 21:55 Cloudy 39 4 39 4 100 100 W 14 22 29.97 1015 5 8.0467 N/A
10:15 pm 22:15 Cloudy 39 4 39 4 100 100 W 14 22 29.99 1016 10 16.0934 N/A
10:35 pm 22:35 Cloudy 39 4 39 4 100 100 W 13 20 29.99 1016 10 16.0934 N/A
10:55 pm 22:55 Cloudy 39 4 39 4 100 100 W 8 13 30 1016 10 16.0934 N/A
11:15 pm 23:15 Cloudy 39 4 39 4 100 100 W 12 19 30.01 1016 10 16.0934 N/A
11:35 pm 23:35 Cloudy 39 4 39 4 100 100 W 13 20 30.02 1017 10 16.0934 N/A
11:55 pm 23:55 Cloudy 37 3 37 3 100 100 W 12 19 30.02 1017 4 6.43736 N/A

Powered by AerisWeather